• In Netherlands
  • List of Countries
  • For 7 days
  • Water Temperature
  • Satellite Maps
  • Weather Map
  • Weather Widgets
  • user-avatar
    Login

    Hourly Weather Neuquén

    Today, 23 January, Tuesday

    Time Temperature Precipitation Wind Pressure Humidity
    00:00 +26°C° 0 mm 12 mps 726 mmHg 22%
    01:00 +23°C° 0 mm 11 mps 727 mmHg 23%
    02:00 +23°C° 0 mm 10 mps 727 mmHg 24%
    03:00 +22°C° 0 mm 9 mps 727 mmHg 24%
    04:00 +21°C° 0 mm 8 mps 728 mmHg 25%
    05:00 +22°C° 0 mm 8 mps 728 mmHg 24%
    06:00 +22°C° 0 mm 8 mps 729 mmHg 23%
    07:00 +23°C° 0 mm 7 mps 729 mmHg 22%
    08:00 +24°C° 0 mm 7 mps 729 mmHg 20%
    09:00 +27°C° 0 mm 6 mps 730 mmHg 18%
    10:00 +28°C° 0 mm 5 mps 730 mmHg 15%
    11:00 +29°C° 0 mm 5 mps 730 mmHg 14%
    12:00 +30°C° 0 mm 5 mps 730 mmHg 12%
    13:00 +32°C° 0 mm 6 mps 730 mmHg 11%
    14:00 +32°C° 0 mm 6 mps 729 mmHg 11%
    15:00 +33°C° 0 mm 6 mps 729 mmHg 10%
    16:00 +33°C° 0 mm 6 mps 729 mmHg 9%
    17:00 +33°C° 0 mm 5 mps 730 mmHg 10%
    18:00 +32°C° 0 mm 5 mps 730 mmHg 10%
    19:00 +30°C° 0 mm 4 mps 730 mmHg 10%
    20:00 +29°C° 0 mm 6 mps 731 mmHg 13%
    21:00 +27°C° 0 mm 8 mps 732 mmHg 16%
    22:00 +24°C° 0 mm 10 mps 733 mmHg 18%
    23:00 +23°C° 0 mm 10 mps 734 mmHg 22%

    Tomorrow, 24 January, Wednesday

    Time Temperature Precipitation Wind Pressure Humidity
    00:00 +22°C° 0 mm 10 mps 734 mmHg 26%
    01:00 +21°C° 0 mm 9 mps 735 mmHg 30%
    02:00 +19°C° 0 mm 9 mps 735 mmHg 35%
    03:00 +18°C° 0 mm 9 mps 736 mmHg 40%
    04:00 +17°C° 0 mm 8 mps 736 mmHg 45%
    05:00 +17°C° 0 mm 8 mps 737 mmHg 43%
    06:00 +18°C° 0 mm 8 mps 737 mmHg 42%
    07:00 +18°C° 0 mm 8 mps 738 mmHg 40%
    08:00 +20°C° 0 mm 8 mps 738 mmHg 36%
    09:00 +22°C° 0 mm 8 mps 738 mmHg 31%
    10:00 +23°C° 0 mm 9 mps 738 mmHg 27%
    11:00 +24°C° 0 mm 8 mps 737 mmHg 24%
    12:00 +27°C° 0 mm 8 mps 736 mmHg 22%
    13:00 +28°C° 0 mm 8 mps 736 mmHg 20%
    14:00 +28°C° 0 mm 8 mps 735 mmHg 19%
    15:00 +29°C° 0 mm 7 mps 735 mmHg 18%
    16:00 +30°C° 0 mm 7 mps 734 mmHg 18%
    17:00 +29°C° 0 mm 7 mps 734 mmHg 18%
    18:00 +29°C° 0 mm 7 mps 734 mmHg 19%
    19:00 +28°C° 0 mm 7 mps 734 mmHg 20%
    20:00 +28°C° 0.1 mm 7 mps 734 mmHg 21%
    21:00 +27°C° 0.1 mm 8 mps 735 mmHg 22%
    22:00 +26°C° 0.1 mm 9 mps 735 mmHg 23%
    23:00 +24°C° 0.1 mm 9 mps 735 mmHg 26%

    Day after tomorrow, 25 January, Thursday

    Time Temperature Precipitation Wind Pressure Humidity
    00:00 +23°C° 0.1 mm 9 mps 734 mmHg 30%
    01:00 +21°C° 0.1 mm 9 mps 734 mmHg 34%
    02:00 +21°C° 0 mm 9 mps 734 mmHg 37%
    03:00 +19°C° 0 mm 9 mps 734 mmHg 40%
    04:00 +18°C° 0 mm 8 mps 734 mmHg 43%
    05:00 +20°C° 0 mm 8 mps 734 mmHg 42%
    06:00 +19°C° 0 mm 9 mps 734 mmHg 41%
    07:00 +21°C° 0 mm 9 mps 734 mmHg 40%
    08:00 +23°C° 0.1 mm 8 mps 734 mmHg 36%
    09:00 +24°C° 0.1 mm 8 mps 734 mmHg 32%
    10:00 +27°C° 0.1 mm 8 mps 734 mmHg 29%
    11:00 +29°C° 0.1 mm 8 mps 733 mmHg 27%
    12:00 +30°C° 0.1 mm 7 mps 733 mmHg 25%
    13:00 +33°C° 0.1 mm 7 mps 732 mmHg 24%
    14:00 +33°C° 0 mm 7 mps 731 mmHg 24%
    15:00 +34°C° 0 mm 6 mps 731 mmHg 25%
    16:00 +34°C° 0 mm 6 mps 730 mmHg 25%
    17:00 +33°C° 0 mm 6 mps 730 mmHg 29%
    18:00 +33°C° 0 mm 7 mps 730 mmHg 32%
    19:00 +32°C° 0 mm 7 mps 730 mmHg 36%
    20:00 +31°C° 0.8 mm 8 mps 730 mmHg 40%
    21:00 +29°C° 0.8 mm 8 mps 730 mmHg 44%
    22:00 +28°C° 0.8 mm 9 mps 730 mmHg 48%
    23:00 +27°C° 0.9 mm 8 mps 730 mmHg 52%

    26 January, Friday

    Time Temperature Precipitation Wind Pressure Humidity
    00:00 +26°C° 0.9 mm 8 mps 730 mmHg 56%
    01:00 +24°C° 0.9 mm 7 mps 729 mmHg 60%
    02:00 +24°C° 0.1 mm 6 mps 729 mmHg 60%
    03:00 +23°C° 0.1 mm 6 mps 729 mmHg 61%
    04:00 +23°C° 0.1 mm 5 mps 729 mmHg 62%
    05:00 +25°C° 0 mm 4 mps 729 mmHg 59%
    06:00 +25°C° 0 mm 3 mps 729 mmHg 56%
    07:00 +26°C° 0 mm 2 mps 729 mmHg 52%
    08:00 +27°C° 0 mm 2 mps 729 mmHg 45%
    09:00 +29°C° 0 mm 2 mps 729 mmHg 37%
    10:00 +31°C° 0 mm 2 mps 729 mmHg 29%
    11:00 +33°C° 0 mm 3 mps 728 mmHg 24%
    12:00 +34°C° 0 mm 4 mps 727 mmHg 18%
    13:00 +36°C° 0 mm 4 mps 727 mmHg 13%
    14:00 +36°C° 0 mm 4 mps 726 mmHg 11%
    15:00 +37°C° 0 mm 4 mps 726 mmHg 9%
    16:00 +38°C° 0 mm 4 mps 726 mmHg 7%
    17:00 +37°C° 0 mm 5 mps 726 mmHg 8%
    18:00 +36°C° 0 mm 6 mps 726 mmHg 9%
    19:00 +35°C° 0 mm 7 mps 726 mmHg 9%
    20:00 +33°C° 0 mm 9 mps 726 mmHg 12%
    21:00 +32°C° 0 mm 10 mps 726 mmHg 14%
    22:00 +29°C° 0 mm 11 mps 727 mmHg 16%
    23:00 +28°C° 0 mm 11 mps 727 mmHg 19%

    27 January, Saturday

    Time Temperature Precipitation Wind Pressure Humidity
    00:00 +27°C° 0 mm 11 mps 727 mmHg 22%
    01:00 +24°C° 0 mm 10 mps 727 mmHg 25%
    02:00 +23°C° 0 mm 11 mps 727 mmHg 25%
    03:00 +23°C° 0 mm 11 mps 727 mmHg 26%
    04:00 +22°C° 0 mm 11 mps 728 mmHg 26%
    05:00 +22°C° 0 mm 11 mps 728 mmHg 25%
    06:00 +22°C° 0 mm 11 mps 728 mmHg 24%
    07:00 +22°C° 0 mm 12 mps 729 mmHg 23%
    08:00 +24°C° 0 mm 11 mps 729 mmHg 22%
    09:00 +26°C° 0 mm 11 mps 729 mmHg 20%
    10:00 +27°C° 0 mm 10 mps 729 mmHg 18%
    11:00 +28°C° 0 mm 10 mps 729 mmHg 17%
    12:00 +31°C° 0 mm 10 mps 729 mmHg 16%
    13:00 +32°C° 0 mm 9 mps 728 mmHg 15%
    14:00 +32°C° 0 mm 9 mps 728 mmHg 15%
    15:00 +33°C° 0 mm 10 mps 728 mmHg 14%
    16:00 +33°C° 0 mm 10 mps 728 mmHg 14%
    17:00 +32°C° 0 mm 9 mps 729 mmHg 15%
    18:00 +31°C° 0 mm 9 mps 729 mmHg 16%
    19:00 +29°C° 0 mm 9 mps 729 mmHg 16%
    20:00 +28°C° 0 mm 9 mps 730 mmHg 18%
    21:00 +27°C° 0 mm 9 mps 731 mmHg 20%
    22:00 +26°C° 0 mm 10 mps 731 mmHg 21%
    23:00 +26°C° 0 mm 9 mps 731 mmHg 24%

    28 January, Sunday

    Time Temperature Precipitation Wind Pressure Humidity
    00:00 +24°C° 0 mm 9 mps 731 mmHg 26%
    01:00 +23°C° 0 mm 8 mps 731 mmHg 28%
    02:00 +22°C° 0 mm 7 mps 732 mmHg 29%
    03:00 +21°C° 0 mm 6 mps 732 mmHg 31%
    04:00 +21°C° 0 mm 6 mps 732 mmHg 32%
    05:00 +22°C° 0 mm 5 mps 732 mmHg 30%
    06:00 +22°C° 0 mm 4 mps 733 mmHg 28%
    07:00 +23°C° 0 mm 4 mps 733 mmHg 25%
    08:00 +25°C° 0 mm 3 mps 733 mmHg 23%
    09:00 +26°C° 0 mm 3 mps 733 mmHg 21%
    10:00 +27°C° 0 mm 2 mps 733 mmHg 18%
    11:00 +28°C° 0 mm 2 mps 732 mmHg 16%
    12:00 +30°C° 0 mm 2 mps 732 mmHg 13%
    13:00 +31°C° 0 mm 2 mps 731 mmHg 11%
    14:00 +31°C° 0 mm 2 mps 731 mmHg 10%
    15:00 +32°C° 0 mm 2 mps 730 mmHg 9%
    16:00 +32°C° 0 mm 2 mps 730 mmHg 8%
    17:00 +32°C° 0 mm 2 mps 729 mmHg 9%
    18:00 +31°C° 0 mm 2 mps 729 mmHg 9%
    19:00 +31°C° 0 mm 2 mps 729 mmHg 10%
    20:00 +30°C° 0 mm 2 mps 729 mmHg 10%
    21:00 +30°C° 0 mm 2 mps 729 mmHg 11%
    22:00 +29°C° 0 mm 2 mps 729 mmHg 11%
    23:00 +28°C° 0 mm 2 mps 729 mmHg 12%
    Show more